H1 CPF 2 NER 2021 10 9 9 282 01 glonass133 H2 1403201 9133 40001 2021 10 9 0 0 0 2021 10 12 23 45 0 900 1 1 0 0 0 1 H9 10 0 59496 0.00000 0 -21749873.328 -3380226.711 -12858084.220 10 0 59496 900.00000 0 -19994529.806 -3466500.003 -15430395.337 10 0 59496 1800.00000 0 -17959899.209 -3749240.978 -17702460.764 10 0 59496 2700.00000 0 -15704671.547 -4257031.602 -19630166.790 10 0 59496 3600.00000 0 -13293868.232 -5006914.456 -21176132.205 10 0 59496 4500.00000 0 -10796269.026 -6003475.252 -22310428.341 10 0 59496 5400.00000 0 -8281699.532 -7238462.085 -23011151.270 10 0 59496 6300.00000 0 -5818292.503 -8690957.317 -23264836.057 10 0 59496 7200.00000 0 -3469836.835 -10328094.674 -23066706.081 10 0 59496 8100.00000 0 -1293323.760 -12106291.364 -22420753.755 10 0 59496 9000.00000 0 663208.914 -13972943.596 -21339652.050 10 0 59496 9900.00000 0 2362446.375 -15868514.656 -19844499.348 10 0 59496 10800.00000 0 3779108.501 -17728928.545 -17964403.154 10 0 59496 11700.00000 0 4900751.082 -19488169.636 -15735910.965 10 0 59496 12600.00000 0 5728025.192 -21080980.252 -13202299.452 10 0 59496 13500.00000 0 6274385.861 -22445544.107 -10412735.526 10 0 59496 14400.00000 0 6565264.016 -23526044.103 -7421325.225 10 0 59496 15300.00000 0 6636737.796 -24274988.082 -4286068.545 10 0 59496 16200.00000 0 6533760.180 -24655205.739 -1067740.007 10 0 59496 17100.00000 0 6308018.250 -24641433.512 2171283.776 10 0 59496 18000.00000 0 6015514.626 -24221421.201 5368227.103 10 0 59496 18900.00000 0 5713973.231 -23396513.979 8461125.862 10 0 59496 19800.00000 0 5460178.780 -22181685.100 11390022.759 10 0 59496 20700.00000 0 5307362.156 -20605017.416 14098124.205 10 0 59496 21600.00000 0 5302741.964 -18706654.846 16532896.870 10 0 59496 22500.00000 0 5485325.946 -16537266.595 18647083.034 10 0 59496 23400.00000 0 5884065.218 -14156087.370 20399615.362 10 0 59496 24300.00000 0 6516439.580 -11628614.159 21756413.759 10 0 59496 25200.00000 0 7387534.321 -9024054.355 22691049.098 10 0 59496 26100.00000 0 8489648.544 -6412630.431 23185261.023 10 0 59496 27000.00000 0 9802452.970 -3862852.260 23229319.709 10 0 59496 27900.00000 0 11293692.347 -1438869.627 22822224.219 10 0 59496 28800.00000 0 12920404.852 801985.601 21971732.997 10 0 59496 29700.00000 0 14630609.165 2811365.889 20694225.110 10 0 59496 30600.00000 0 16365390.182 4551693.159 19014393.909 10 0 59496 31500.00000 0 18061297.161 5997488.324 16964777.982 10 0 59496 32400.00000 0 19652954.643 7136189.814 14585137.463 10 0 59496 33300.00000 0 21075776.928 7968427.000 11921686.859 10 0 59496 34200.00000 0 22268671.907 8507737.176 9026198.696 10 0 59496 35100.00000 0 23176620.007 8779738.432 5954995.108 10 0 59496 36000.00000 0 23753018.730 8820793.848 2767847.035 10 0 59496 36900.00000 0 23961692.856 8676224.226 -473196.947 10 0 59496 37800.00000 0 23778484.382 8398146.074 -3705028.524 10 0 59496 38700.00000 0 23192354.002 8043027.663 -6864719.450 10 0 59496 39600.00000 0 22205946.809 7669068.163 -9890757.724 10 0 59496 40500.00000 0 20835597.830 7333512.429 -12724254.828 10 0 59496 41400.00000 0 19110776.900 7090016.639 -15310099.419 10 0 59496 42300.00000 0 17072996.425 6986177.570 -17598034.064 10 0 59496 43200.00000 0 14774228.269 7061331.035 -19543633.646 10 0 59496 44100.00000 0 12274896.701 7344713.132 -21109166.359 10 0 59496 45000.00000 0 9641532.022 7854062.187 -22264320.832 10 0 59496 45900.00000 0 6944183.309 8594720.305 -22986785.995 10 0 59496 46800.00000 0 4253698.359 9559272.082 -23262673.400 10 0 59496 47700.00000 0 1638983.998 10727735.234 -23086774.838 10 0 59496 48600.00000 0 -835639.898 12068294.750 -22462651.425 10 0 59496 49500.00000 0 -3112883.717 13538549.441 -21402553.414 10 0 59496 50400.00000 0 -5144628.553 15087218.407 -19927173.107 10 0 59496 51300.00000 0 -6893676.575 16656235.974 -18065236.277 10 0 59496 52200.00000 0 -8335040.450 18183147.586 -15852940.250 10 0 59496 53100.00000 0 -9456720.128 19603706.672 -13333249.703 10 0 59496 54000.00000 0 -10259936.603 20854564.245 -10555063.606 10 0 59496 54900.00000 0 -10758814.800 21875939.157 -7572269.173 10 0 59496 55800.00000 0 -10979530.363 22614157.559 -4442700.821 10 0 59496 56700.00000 0 -10958957.576 23023955.677 -1227023.863 10 0 59496 57600.00000 0 -10742876.132 23070449.654 2012435.851 10 0 59496 58500.00000 0 -10383812.764 22730689.921 5212893.990 10 0 59496 59400.00000 0 -9938609.033 21994734.911 8312318.567 10 0 59496 60300.00000 0 -9465817.747 20866198.640 11250626.465 10 0 59496 61200.00000 0 -9023037.784 19362248.677 13970842.706 10 0 59496 62100.00000 0 -8664299.496 17513053.819 16420200.449 10 0 59496 63000.00000 0 -8437610.807 15360703.441 18551160.777 10 0 59496 63900.00000 0 -8382767.344 12957642.569 20322332.808 10 0 59496 64800.00000 0 -8529519.029 10364686.508 21699276.705 10 0 59496 65700.00000 0 -8896170.734 7648696.376 22655174.237 10 0 59496 66600.00000 0 -9488676.609 4880011.003 23171353.996 10 0 59496 67500.00000 0 -10300267.226 2129740.687 23237660.988 10 0 59496 68400.00000 0 -11311626.534 -532965.832 22852663.121 10 0 59496 69300.00000 0 -12491612.706 -3043568.431 22023689.959 10 0 59496 70200.00000 0 -13798494.215 -5344587.347 20766702.247 10 0 59496 71100.00000 0 -15181650.789 -7387758.101 19105993.669 10 0 59496 72000.00000 0 -16583669.093 -9135799.970 17073729.628 10 0 59496 72900.00000 0 -17942746.071 -10563724.454 14709330.915 10 0 59496 73800.00000 0 -19195299.455 -11659629.079 12058713.290 10 0 59496 74700.00000 0 -20278675.595 -12424943.364 9173397.165 10 0 59496 75600.00000 0 -21133840.158 -12874116.901 6109504.323 10 0 59496 76500.00000 0 -21707937.436 -13033763.119 2926661.253 10 0 59496 77400.00000 0 -21956609.129 -12941295.486 -313168.986 10 0 59496 78300.00000 0 -21845973.437 -12643114.738 -3546902.841 10 0 59496 79200.00000 0 -21354179.603 -12192424.983 -6711575.481 10 0 59496 80100.00000 0 -20472471.110 -11646772.506 -9745577.657 10 0 59496 81000.00000 0 -19205711.764 -11065412.947 -12589864.885 10 0 59496 81900.00000 0 -17572351.879 -10506619.796 -15189114.291 10 0 59496 82800.00000 0 -15603835.733 -10025049.375 -17492805.636 10 0 59496 83700.00000 0 -13343475.282 -9669274.808 -19456205.052 10 0 59496 84600.00000 0 -10844837.563 -9479593.819 -21041232.268 10 0 59496 85500.00000 0 -8169713.763 -9486203.168 -22217194.738 10 0 59497 0.00000 0 -5385755.366 -9707816.565 -22961375.083 10 0 59497 900.00000 0 -2563874.613 -10150784.015 -23259461.693 10 0 59497 1800.00000 0 224478.741 -10808748.655 -23105814.293 10 0 59497 2700.00000 0 2910056.572 -11662855.187 -22503561.781 10 0 59497 3600.00000 0 5428450.719 -12682500.221 -21464530.330 10 0 59497 4500.00000 0 7722523.509 -13826592.545 -20009004.463 10 0 59497 5400.00000 0 9744530.804 -15045270.056 -18165326.250 10 0 59497 6300.00000 0 11457851.107 -16282001.212 -15969340.673 10 0 59497 7200.00000 0 12838250.595 -17475982.922 -13463698.051 10 0 59497 8100.00000 0 13874633.365 -18564734.529 -10697026.903 10 0 59497 9000.00000 0 14569247.435 -19486779.422 -7722992.966 10 0 59497 9900.00000 0 14937339.540 -20184302.139 -4599262.309 10 0 59497 10800.00000 0 15006274.658 -20605669.800 -1386388.197 10 0 59497 11700.00000 0 14814158.254 -20707712.223 1853357.153 10 0 59497 12600.00000 0 14408020.021 -20457665.211 5057183.606 10 0 59497 13500.00000 0 13841635.849 -19834695.222 8162994.041 10 0 59497 14400.00000 0 13173079.877 -18830940.980 11110582.086 10 0 59497 15300.00000 0 12462109.774 -17452027.904 13842793.734 10 0 59497 16200.00000 0 11767495.105 -15717032.747 16306630.732 10 0 59497 17100.00000 0 11144401.102 -13657898.851 18454274.758 10 0 59497 18000.00000 0 10641937.719 -11318325.104 20244012.862 10 0 59497 18900.00000 0 10300977.033 -8752173.432 21641046.588 10 0 59497 19800.00000 0 10152330.828 -6021459.541 22618169.381 10 0 59497 20700.00000 0 10215365.363 -3194009.067 23156299.205 10 0 59497 21600.00000 0 10497112.090 -340875.019 23244855.984 10 0 59497 22500.00000 0 10991912.601 2466377.519 22881976.238 10 0 59497 23400.00000 0 11681613.777 5158407.661 22074560.150 10 0 59497 24300.00000 0 12536306.220 7670743.183 20838149.373 10 0 59497 25200.00000 0 13515576.201 9946223.813 19196636.951 10 0 59497 26100.00000 0 14570219.659 11937141.910 17181813.924 10 0 59497 27000.00000 0 15644347.095 13606991.453 14832760.375 10 0 59497 27900.00000 0 16677791.337 14931752.347 12195091.774 10 0 59497 28800.00000 0 17608716.873 15900656.189 9320074.667 10 0 59497 29700.00000 0 18376320.397 16516401.500 6263628.529 10 0 59497 30600.00000 0 18923507.887 16794809.606 3085233.241 10 0 59497 31500.00000 0 19199434.009 16763936.100 -153236.001 10 0 59497 32400.00000 0 19161795.269 16462676.124 -3388722.890 10 0 59497 33300.00000 0 18778778.535 15938923.422 -6558228.570 10 0 59497 34200.00000 0 18030581.271 15247362.221 -9600049.113 10 0 59497 35100.00000 0 16910438.061 14446986.745 -12454986.571 10 0 59497 36000.00000 0 15425109.185 13598454.706 -15067508.909 10 0 59497 36900.00000 0 13594810.084 12761388.007 -17386835.285 10 0 59497 37800.00000 0 11452584.355 11991735.793 -19367925.088 10 0 59497 38700.00000 0 9043146.526 11339311.958 -20972351.399 10 0 59497 39600.00000 0 6421243.282 10845611.298 -22169042.123 10 0 59497 40500.00000 0 3649601.810 10541996.232 -22934875.084 10 0 59497 41400.00000 0 796550.967 10448329.964 -23255116.448 10 0 59497 42300.00000 0 -2066585.608 10572112.732 -23123694.986 10 0 59497 43200.00000 0 -4868216.357 10908156.502 -22543307.998 10 0 59497 44100.00000 0 -7539215.978 11438810.686 -21525357.833 10 0 59497 45000.00000 0 -10015554.211 12134728.443 -20089721.090 10 0 59497 45900.00000 0 -12240711.420 12956140.577 -18264355.584 10 0 59497 46800.00000 0 -14167782.091 13854582.962 -16084753.001 10 0 59497 47700.00000 0 -15761180.443 14775004.659 -13593248.016 10 0 59497 48600.00000 0 -16997878.955 15658168.070 -10838197.113 10 0 59497 49500.00000 0 -17868129.907 16443240.446 -7873042.720 10 0 59497 50400.00000 0 -18375641.409 17070468.019 -4755280.526 10 0 59497 51300.00000 0 -18537201.979 17483820.621 -1545349.534 10 0 59497 52200.00000 0 -18381770.638 17633495.833 1694534.059 10 0 59497 53100.00000 0 -17949071.503 17478177.482 4901576.856 10 0 59497 54000.00000 0 -17287752.463 16986953.415 8013619.293 10 0 59497 54900.00000 0 -16453185.666 16140811.699 10970334.583 10 0 59497 55800.00000 0 -15505002.212 14933651.735 13714392.620 10 0 59497 56700.00000 0 -14504464.660 13372766.985 16192566.712 10 0 59497 57600.00000 0 -13511787.587 11478778.033 18356762.075 10 0 59497 58500.00000 0 -12583518.431 9285017.239 20164946.507 10 0 59497 59400.00000 0 -11770088.404 6836389.088 21581965.560 10 0 59497 60300.00000 0 -11113636.138 4187751.983 22580226.695 10 0 59497 61200.00000 0 -10646195.429 1401887.104 23140239.238 10 0 59497 62100.00000 0 -10388323.357 -1452862.921 23250999.609 10 0 59497 63000.00000 0 -10348226.780 -4305189.015 22910214.053 10 0 59497 63900.00000 0 -10521424.559 -7083537.754 22124353.985 10 0 59497 64800.00000 0 -10890960.497 -9718848.613 20908542.061 10 0 59497 65700.00000 0 -11428159.003 -12147193.303 19286270.244 10 0 59497 66600.00000 0 -12093892.608 -14312207.729 17288954.257 10 0 59497 67500.00000 0 -12840308.775 -16167215.445 14955332.018 10 0 59497 68400.00000 0 -13612943.791 -17676953.936 12330716.810 10 0 59497 69300.00000 0 -14353134.802 -18818831.313 9466119.014 10 0 59497 70200.00000 0 -15000627.918 -19583660.682 6417253.183 10 0 59497 71100.00000 0 -15496271.615 -19975841.305 3243449.702 10 0 59497 72000.00000 0 -15784680.500 -20012979.090 6492.796 10 0 59497 72900.00000 0 -15816755.514 -19724962.891 -3230591.748 10 0 59497 73800.00000 0 -15551952.462 -19152536.352 -6404774.466 10 0 59497 74700.00000 0 -14960201.460 -18345426.615 -9454260.246 10 0 59497 75600.00000 0 -14023394.768 -17360110.246 -12319701.200 10 0 59497 76500.00000 0 -12736378.975 -16257312.075 -14945359.596 10 0 59497 77400.00000 0 -11107408.850 -15099343.963 -17280197.287 10 0 59497 78300.00000 0 -9158043.123 -13947396.946 -19278869.936 10 0 59497 79200.00000 0 -6922486.232 -12858901.795 -20902606.571 10 0 59497 80100.00000 0 -4446403.586 -11885069.687 -22119957.621 10 0 59497 81000.00000 0 -1785259.919 -11068716.426 -22907397.545 10 0 59497 81900.00000 0 997749.899 -10442461.277 -23249771.259 10 0 59497 82800.00000 0 3834091.314 -10027375.225 -23140576.719 10 0 59497 83700.00000 0 6652502.570 -9832134.230 -22582079.288 10 0 59497 84600.00000 0 9381721.169 -9852711.710 -21585256.664 10 0 59497 85500.00000 0 11953211.628 -10072621.791 -20169576.275 10 0 59498 0.00000 0 14303782.182 -10463701.826 -18362610.254 10 0 59498 900.00000 0 16377984.149 -10987400.499 -16199494.744 10 0 59498 1800.00000 0 18130192.510 -11596516.087 -13722246.689 10 0 59498 2700.00000 0 19526286.908 -12237312.018 -10978948.008 10 0 59498 3600.00000 0 20544861.370 -12851920.051 -8022815.017 10 0 59498 4500.00000 0 21177915.030 -13380930.157 -4911169.978 10 0 59498 5400.00000 0 21430996.125 -13766058.131 -1704334.405 10 0 59498 6300.00000 0 21322794.436 -13952778.857 1535534.840 10 0 59498 7200.00000 0 20884200.075 -13892814.422 4745644.428 10 0 59498 8100.00000 0 20156868.712 -13546372.351 7863775.562 10 0 59498 9000.00000 0 19191353.748 -12884039.512 10829484.042 10 0 59498 9900.00000 0 18044883.888 -11888251.561 13585266.374 10 0 59498 10800.00000 0 16778879.368 -10554275.419 16077669.784 10 0 59498 11700.00000 0 15456310.751 -8890662.423 18258325.010 10 0 59498 12600.00000 0 14139010.751 -6919151.817 20084882.188 10 0 59498 13500.00000 0 12885051.442 -4674026.944 21521832.068 10 0 59498 14400.00000 0 11746296.349 -2200949.073 22541196.926 10 0 59498 15300.00000 0 10766229.829 444684.367 23123077.852 10 0 59498 16200.00000 0 9978154.552 3199790.742 23256047.793 10 0 59498 17100.00000 0 9403832.674 5995978.920 22937382.396 10 0 59498 18000.00000 0 9052627.966 8762154.402 22173123.623 10 0 59498 18900.00000 0 8921185.273 11427245.952 20977974.152 10 0 59498 19800.00000 0 8993661.339 13922941.283 19375023.601 10 0 59498 20700.00000 0 9242497.907 16186318.442 17395310.862 10 0 59498 21600.00000 0 9629705.102 18162263.527 15077229.974 10 0 59498 22500.00000 0 10108601.438 19805573.775 12465790.106 10 0 59498 23400.00000 0 10625937.186 21082657.761 9611743.392 10 0 59498 24300.00000 0 11124311.241 21972761.232 6570597.193 10 0 59498 25200.00000 0 11544778.727 22468666.796 3401529.985 10 0 59498 26100.00000 0 11829538.111 22576837.935 166232.496 10 0 59498 27000.00000 0 11924582.824 22317001.394 -3072302.603 10 0 59498 27900.00000 0 11782203.672 21721186.014 -6251017.835 10 0 59498 28800.00000 0 11363234.575 20832259.272 -9308029.451 10 0 59498 29700.00000 0 10638945.130 19702024.339 -12183842.033 10 0 59498 30600.00000 0 9592498.607 18388959.140 -14822514.405 10 0 59498 31500.00000 0 8219912.780 16955694.069 -17172753.159 10 0 59498 32400.00000 0 6530482.225 15466335.859 -19188912.060 10 0 59498 33300.00000 0 4546643.748 13983751.219 -20831877.710 10 0 59498 34200.00000 0 2303290.336 12566925.137 -22069824.468 10 0 59498 35100.00000 0 -153437.799 11268504.985 -22878824.608 10 0 59498 36000.00000 0 -2767834.623 10132633.183 -23243302.723 10 0 59498 36900.00000 0 -5476711.993 9193158.535 -23156326.580 10 0 59498 37800.00000 0 -8211799.070 8472300.036 -22619729.880 10 0 59498 38700.00000 0 -10902357.973 7979817.621 -21644065.547 10 0 59498 39600.00000 0 -13477907.445 7712723.038 -20248391.291 10 0 59498 40500.00000 0 -15870942.142 7655541.310 -18459892.248 10 0 59498 41400.00000 0 -18019535.606 7781110.310 -16313348.338 10 0 59498 42300.00000 0 -19869719.746 8051883.672 -13850456.853 10 0 59498 43200.00000 0 -21377543.177 8421681.307 -11119023.291 10 0 59498 44100.00000 0 -22510724.006 8837813.274 -8172035.847 10 0 59498 45000.00000 0 -23249829.287 9243487.288 -5066641.244 10 0 59498 45900.00000 0 -23588933.206 9580398.326 -1863041.319 10 0 59498 46800.00000 0 -23535727.471 9791391.262 1376668.678 10 0 59498 47700.00000 0 -23111079.973 9823084.364 4589697.831 10 0 59498 48600.00000 0 -22348060.933 9628343.158 7713770.566 10 0 59498 49500.00000 0 -21290477.457 9168500.234 10688327.814 10 0 59498 50400.00000 0 -19990978.092 8415227.230 13455695.311 10 0 59498 51300.00000 0 -18508806.714 7351979.608 15962196.846 10 0 59498 52200.00000 0 -16907299.527 5974952.584 18159191.272 10 0 59498 53100.00000 0 -15251229.619 4293506.866 20004013.524 10 0 59498 54000.00000 0 -13604109.680 2330044.759 21460801.784 10 0 59498 54900.00000 0 -12025565.230 119339.949 22501195.080 10 0 59498 55800.00000 0 -10568887.812 -2292652.984 23104887.849 10 0 59498 56700.00000 0 -9278870.096 -4850461.775 23260030.741 10 0 59498 57600.00000 0 -8190013.195 -7491165.150 22963469.549 10 0 59498 58500.00000 0 -7325181.194 -10146782.623 22220817.116 10 0 59498 59400.00000 0 -6694759.293 -12746887.517 21046356.022 10 0 59498 60300.00000 0 -6296351.069 -15221335.664 19462773.010 10 0 59498 61200.00000 0 -6115027.888 -17502996.814 17500729.203 10 0 59498 62100.00000 0 -6124120.277 -19530375.264 15198273.427 10 0 59498 63000.00000 0 -6286518.122 -21250010.302 12600109.072 10 0 59498 63900.00000 0 -6556424.951 -22618555.704 9756728.044 10 0 59498 64800.00000 0 -6881491.958 -23604450.752 6723428.282 10 0 59498 65700.00000 0 -7205241.011 -24189112.115 3559233.920 10 0 59498 66600.00000 0 -7469673.235 -24367596.020 325739.575 10 0 59498 67500.00000 0 -7617951.498 -24148702.659 -2914097.973 10 0 59498 68400.00000 0 -7597041.764 -23554518.447 -6097196.148 10 0 59498 69300.00000 0 -7360199.865 -22619415.843 -9161585.598 10 0 59498 70200.00000 0 -6869196.865 -21388553.595 -12047626.511 10 0 59498 71100.00000 0 -6096187.382 -19915941.612 -14699177.419 10 0 59498 72000.00000 0 -5025140.713 -18262153.134 -17064692.758 10 0 59498 72900.00000 0 -3652773.382 -16491781.629 -19098227.329 10 0 59498 73800.00000 0 -1988943.080 -14670750.359 -20760327.943 10 0 59498 74700.00000 0 -56487.064 -12863588.343 -22018795.127 10 0 59498 75600.00000 0 2109488.520 -11130787.318 -22849300.712 10 0 59498 76500.00000 0 4462838.760 -9526350.238 -23235850.171 10 0 59498 77400.00000 0 6948078.214 -8095633.379 -23171081.735 10 0 59498 78300.00000 0 9502476.546 -6873571.159 -22656397.567 10 0 59498 79200.00000 0 12058464.568 -5883356.463 -21701925.456 10 0 59498 80100.00000 0 14546250.861 -5135629.933 -20326312.597 10 0 59498 81000.00000 0 16896540.762 -4628210.295 -18556356.108 10 0 59498 81900.00000 0 19043245.416 -4346375.177 -16426477.778 10 0 59498 82800.00000 0 20926069.026 -4263678.993 -13978053.428 10 0 59498 83700.00000 0 22492867.647 -4343272.164 -11258609.793 10 0 59498 84600.00000 0 23701682.346 -4539665.144 -8320904.245 10 0 59498 85500.00000 0 24522362.916 -4800862.311 -5221904.941 10 0 59499 0.00000 0 24937715.361 -5070775.394 -2021691.055 10 0 59499 900.00000 0 24944126.105 -5291814.655 1217707.771 10 0 59499 1800.00000 0 24551637.213 -5407548.194 4433506.206 10 0 59499 2700.00000 0 23783470.501 -5365317.739 7563375.274 10 0 59499 3600.00000 0 22675019.935 -5118700.180 10546644.218 10 0 59499 4500.00000 0 21272355.002 -4629711.098 13325470.916 10 0 59499 5400.00000 0 19630297.286 -3870657.013 15845958.285 10 0 59499 6300.00000 0 17810150.396 -2825557.723 18059195.492 10 0 59499 7200.00000 0 15877177.751 -1491077.984 19922204.078 10 0 59499 8100.00000 0 13897932.886 123071.978 21398771.086 10 0 59499 9000.00000 0 11937553.183 1994285.588 22460153.334 10 0 59499 9900.00000 0 10057129.448 4087754.316 23085639.254 10 0 59499 10800.00000 0 8311260.521 6357680.432 23262957.453 10 0 59499 11700.00000 0 6745894.567 8748959.601 22988523.720 10 0 59499 12600.00000 0 5396546.908 11199265.105 22267521.212 10 0 59499 13500.00000 0 4286968.687 13641448.583 21113811.465 10 0 59499 14400.00000 0 3428322.007 16006158.643 19549677.018 10 0 59499 15300.00000 0 2818896.189 18224569.089 17605399.568 10 0 59499 16200.00000 0 2444377.117 20231103.429 15318680.805 10 0 59499 17100.00000 0 2278658.346 21966041.973 12733916.160 10 0 59499 18000.00000 0 2285159.777 23377902.035 9901334.944 10 0 59499 18900.00000 0 2418597.929 24425490.998 6876023.150 10 0 59499 19800.00000 0 2627132.445 25079545.338 3716847.902 10 0 59499 20700.00000 0 2854797.182 25323885.967 485304.956 10 0 59499 21600.00000 0 3044111.784 25156040.733 -2755687.578 10 0 59499 22500.00000 0 3138761.707 24587307.513 -5943024.783 10 0 59499 23400.00000 0 3086231.612 23642255.206 -9014654.369 10 0 59499 24300.00000 0 2840279.020 22357684.027 -11910794.633 10 0 59499 25200.00000 0 2363141.953 20781089.510 -14575106.125 10 0 59499 26100.00000 0 1627385.944 18968695.777 -16955793.205 10 0 59499 27000.00000 0 617311.288 16983141.790 -19006613.541 10 0 59499 27900.00000 0 -670139.628 14890918.668 -20687775.753 10 0 59499 28800.00000 0 -2225013.582 12759666.403 -21966707.886 10 0 59499 29700.00000 0 -4024532.192 10655443.639 -22818682.422 10 0 59499 30600.00000 0 -6033824.385 8640084.721 -23227286.511 10 0 59499 31500.00000 0 -8207175.011 6768754.112 -23184729.309 10 0 59499 32400.00000 0 -10489737.517 5087799.305 -22691981.509 10 0 59499 33300.00000 0 -12819639.394 3632990.496 -21758745.400 10 0 59499 34200.00000 0 -15130392.800 2428218.826 -20403256.845 10 0 59499 35100.00000 0 -17353510.401 1484705.595 -18651923.680 10 0 59499 36000.00000 0 -19421218.062 800753.488 -16538807.910 10 0 59499 36900.00000 0 -21269152.031 362048.281 -14104961.911 10 0 59499 37800.00000 0 -22838929.073 142496.637 -11397631.456 10 0 59499 38700.00000 0 -24080483.229 105563.321 -8469340.750 10 0 59499 39600.00000 0 -24954072.473 206050.545 -5376876.966 10 0 59499 40500.00000 0 -25431872.259 392243.757 -2180193.568 10 0 59499 41400.00000 0 -25499090.001 608332.987 1058746.752 10 0 59499 42300.00000 0 -25154554.371 797007.479 4277167.350 10 0 59499 43200.00000 0 -24410755.025 902114.083 7412688.402 10 0 59499 44100.00000 0 -23293331.226 871267.271 10404530.043 10 0 59499 45000.00000 0 -21840030.530 658300.648 13194684.855 10 0 59499 45900.00000 0 -20099180.764 225456.397 15729037.399 10 0 59499 46800.00000 0 -18127738.803 -454779.966 17958409.523 10 0 59499 47700.00000 0 -15988996.876 -1398277.447 19839511.530 10 0 59499 48600.00000 0 -13750041.456 -2608349.998 21335781.175 10 0 59499 49500.00000 0 -11479069.887 -4075379.102 22418094.550 10 0 59499 50400.00000 0 -9242675.823 -5776985.988 23065335.164 10 0 59499 51300.00000 0 -7103215.868 -7678748.214 23264810.227 10 0 59499 52200.00000 0 -5116366.459 -9735432.719 23012505.754 10 0 59499 53100.00000 0 -3328972.398 -11892695.772 22313175.043 10 0 59499 54000.00000 0 -1777276.339 -14089180.764 21180258.035 10 0 59499 54900.00000 0 -485602.926 -16258927.834 19635632.173 10 0 59499 55800.00000 0 534447.475 -18333995.816 17709198.512 10 0 59499 56700.00000 0 1284261.784 -20247187.695 15438310.079 10 0 59499 57600.00000 0 1777923.025 -21934765.799 12867052.563 10 0 59499 58500.00000 0 2041377.318 -23339042.756 10045390.641 10 0 59499 59400.00000 0 2111094.559 -24410738.987 7028196.128 10 0 59499 60300.00000 0 2032279.838 -25111006.948 3874176.762 10 0 59499 61200.00000 0 1856712.070 -25413035.990 644726.941 10 0 59499 62100.00000 0 1640302.404 -25303169.469 -2597276.474 10 0 59499 63000.00000 0 1440477.179 -24781486.301 -5788708.877 10 0 59499 63900.00000 0 1313497.806 -23861822.054 -8867437.736 10 0 59499 64800.00000 0 1311832.702 -22571228.582 -11773542.199 10 0 59499 65700.00000 0 1481694.106 -20948895.236 -14450487.570 10 0 59499 66600.00000 0 1860845.351 -19044577.601 -16846230.806 10 0 59499 67500.00000 0 2476772.396 -16916600.557 -18914234.987 10 0 59499 68400.00000 0 3345297.667 -14629520.273 -20614372.835 10 0 59499 69300.00000 0 4469695.105 -12251543.894 -21913701.880 10 0 59499 70200.00000 0 5840343.979 -9851815.391 -22787096.801 10 0 59499 71100.00000 0 7434936.100 -7497681.106 -23217727.520 10 0 59499 72000.00000 0 9219227.678 -5252048.912 -23197374.716 10 0 59499 72900.00000 0 11148304.329 -3170950.350 -22726577.753 10 0 59499 73800.00000 0 13168306.346 -1301406.098 -21814613.107 10 0 59499 74700.00000 0 15218542.224 320317.745 -20479304.589 10 0 59499 75600.00000 0 17233902.489 1669991.838 -18746669.650 10 0 59499 76500.00000 0 19147473.500 2736192.752 -16650409.035 10 0 59499 77400.00000 0 20893242.629 3520529.045 -14231249.843 10 0 59499 78300.00000 0 22408782.554 4037316.785 -11536154.688 10 0 59499 79200.00000 0 23637803.268 4312719.915 -8617412.070 10 0 59499 80100.00000 0 24532465.799 4383392.953 -5531625.336 10 0 59499 81000.00000 0 25055361.510 4294684.217 -2338619.449 10 0 59499 81900.00000 0 25181074.755 4098476.008 899713.639 10 0 59499 82800.00000 0 24897263.813 3850753.152 4120608.953 10 0 59499 83700.00000 0 24205214.983 3609002.648 7261639.020 10 0 59499 84600.00000 0 23119846.618 3429554.129 10261917.917 10 0 59499 85500.00000 0 21669162.534 3364973.281 13063275.739 99